This demonstration page uses our WeatherBlox Daily Observations layout. Learn more.

Left ArrowRight Arrow

39.29038, -76.61219

Hourly Observations for January 20, 2020

Temp ( °F °C ) Dew Point ( °F °C ) Humidity (%) Winds ( mph kmh ) Pressure ( in mb ) Visibility ( mi km ) Precip ( " mm )
12:54 am 00:54 undefined 27 -2.8 11 -11.7 51 51 undefined N/A 30.21 1023 N/A 0.00 0.00
1:54 am 01:54 undefined 26 -3.3 11 -11.7 53 53 undefined N/A 30.13 1020 N/A 0.00 0.00
2:54 am 02:54 undefined 26 -3.3 11 -11.7 53 53 undefined N/A 30.14 1021 N/A 0.00 0.00
3:54 am 03:54 undefined 26 -3.3 9 -12.8 48 48 undefined N/A 30.22 1023 N/A 0.00 0.00
4:54 am 04:54 undefined 26 -3.3 9 -12.8 48 48 undefined N/A 30.20 1023 N/A 0.00 0.00
5:54 am 05:54 undefined 26 -3.3 10 -12.2 51 51 undefined N/A 30.23 1024 N/A 0.00 0.00
6:54 am 06:54 undefined 25 -3.9 10 -12.2 53 53 undefined N/A 30.28 1025 N/A 0.00 0.00
7:54 am 07:54 undefined 25 -3.9 10 -12.2 53 53 undefined N/A 30.32 1027 N/A 0.00 0.00
8:54 am 08:54 undefined 26 -3.3 10 -12.2 51 51 undefined N/A 30.35 1028 N/A 0.00 0.00
9:54 am 09:54 undefined 28 -2.2 8 -13.3 43 43 undefined N/A 30.36 1028 N/A 0.00 0.00
10:54 am 10:54 undefined 30 -1.1 8 -13.3 39 39 undefined N/A 30.38 1029 N/A 0.00 0.00
11:54 am 11:54 undefined 31 -0.6 7 -13.9 36 36 undefined N/A 30.37 1029 N/A 0.00 0.00
12:54 pm 12:54 undefined 33 0.6 6 -14.4 32 32 undefined N/A 30.36 1028 N/A 0.00 0.00
1:54 pm 13:54 undefined 33 0.6 6 -14.4 32 32 undefined N/A 30.35 1028 N/A 0.00 0.00
2:54 pm 14:54 undefined 32 0 4 -15.6 30 30 undefined N/A 30.36 1028 N/A 0.00 0.00
3:54 pm 15:54 undefined 32 0 6 -14.4 33 33 undefined N/A 30.37 1028 N/A 0.00 0.00
4:54 pm 16:54 undefined 32 0 4 -15.6 30 30 undefined N/A 30.38 1029 N/A 0.00 0.00
5:54 pm 17:54 undefined 31 -0.6 5 -15 33 33 undefined N/A 30.39 1029 N/A 0.00 0.00
6:54 pm 18:54 undefined 31 -0.6 6 -14.4 35 35 undefined N/A 30.41 1030 N/A 0.00 0.00
7:54 pm 19:54 undefined 30 -1.1 5 -15 34 34 undefined N/A 30.42 1030 N/A 0.00 0.00
8:54 pm 20:54 undefined 30 -1.1 5 -15 34 34 undefined N/A 30.42 1030 N/A 0.00 0.00
9:54 pm 21:54 undefined 30 -1.1 5 -15 34 34 undefined N/A 30.43 1031 N/A 0.00 0.00
10:54 pm 22:54 undefined 27 -2.8 7 -13.9 43 43 undefined N/A 30.44 1031 N/A 0.00 0.00
11:54 pm 23:54 undefined 28 -2.2 6 -14.4 39 39 undefined N/A 30.43 1031 N/A 0.00 0.00

Powered by AerisWeather